QPF
0.00 0.00 0.01 0.01 0.01 0.01 0.00 0.00 0.01 0.02 0.02 0.03 0.03 0.07 0.09 0.09 0.11 0.14 0.15 0.12 0.07 0.04 0.04 0.05 0.09 0.05 0.02 0.02 0.02 0.03 0.06 0.06 0.07 0.09 0.08 0.08 0.08 0.09 0.10 0.12 0.14 0.15 0.16 0.17
0.00 0.01 0.01 0.01 0.01 0.00 0.00 0.00 0.01 0.01 0.03 0.04 0.04 0.06 0.12 0.11 0.09 0.11 0.13 0.09 0.06 0.04 0.04 0.04 0.03 0.03 0.03 0.03 0.03 0.04 0.07 0.07 0.06 0.07 0.07 0.07 0.08 0.09 0.10 0.11 0.12 0.14 0.14 0.15
0.01 0.01 0.02 0.02 0.01 0.01 0.01 0.01 0.02 0.03 0.03 0.04 0.06 0.07 0.10 0.11 0.12 0.10 0.09 0.07 0.06 0.06 0.06 0.06 0.04 0.05 0.04 0.03 0.03 0.03 0.05 0.05 0.06 0.06 0.06 0.06 0.07 0.09 0.09 0.09 0.10 0.11 0.12 0.13
0.01 0.01 0.02 0.03 0.02 0.01 0.01 0.02 0.03 0.03 0.04 0.04 0.06 0.07 0.11 0.15 0.11 0.08 0.09 0.10 0.10 0.10 0.11 0.10 0.07 0.06 0.07 0.05 0.05 0.06 0.06 0.07 0.06 0.06 0.06 0.06 0.07 0.08 0.08 0.07 0.08 0.10 0.13 0.12
0.02 0.02 0.02 0.03 0.02 0.01 0.02 0.05 0.05 0.05 0.03 0.04 0.05 0.06 0.08 0.10 0.07 0.07 0.08 0.10 0.13 0.14 0.14 0.14 0.12 0.10 0.09 0.06 0.07 0.08 0.07 0.06 0.07 0.08 0.08 0.08 0.08 0.09 0.08 0.08 0.08 0.11 0.13 0.12
0.04 0.03 0.03 0.03 0.02 0.01 0.02 0.08 0.06 0.06 0.04 0.04 0.04 0.06 0.07 0.05 0.05 0.05 0.05 0.06 0.07 0.10 0.18 0.21 0.20 0.17 0.14 0.10 0.08 0.07 0.07 0.06 0.08 0.08 0.09 0.10 0.11 0.12 0.13 0.12 0.13 0.13 0.12 0.12
0.06 0.05 0.05 0.03 0.01 0.01 0.04 0.08 0.06 0.07 0.06 0.04 0.04 0.05 0.05 0.06 0.05 0.05 0.03 0.04 0.06 0.08 0.17 0.20 0.21 0.24 0.23 0.18 0.10 0.09 0.10 0.11 0.12 0.13 0.12 0.12 0.12 0.12 0.15 0.16 0.16 0.14 0.13 0.14
0.06 0.07 0.07 0.03 0.02 0.03 0.05 0.05 0.06 0.06 0.06 0.05 0.06 0.10 0.06 0.07 0.08 0.05 0.04 0.05 0.07 0.08 0.10 0.15 0.18 0.23 0.27 0.24 0.15 0.13 0.13 0.14 0.15 0.15 0.15 0.13 0.12 0.12 0.12 0.13 0.13 0.12 0.13 0.15
0.07 0.06 0.06 0.03 0.02 0.02 0.02 0.04 0.05 0.06 0.05 0.05 0.05 0.09 0.07 0.06 0.09 0.06 0.04 0.06 0.09 0.10 0.11 0.14 0.17 0.24 0.24 0.25 0.25 0.24 0.22 0.19 0.17 0.16 0.16 0.18 0.19 0.17 0.14 0.13 0.12 0.10 0.09 0.08
0.09 0.07 0.05 0.03 0.02 0.02 0.02 0.04 0.05 0.05 0.05 0.05 0.05 0.05 0.07 0.06 0.06 0.06 0.09 0.10 0.12 0.12 0.14 0.17 0.19 0.23 0.22 0.23 0.24 0.26 0.25 0.22 0.20 0.18 0.17 0.15 0.17 0.18 0.16 0.12 0.09 0.09 0.08 0.07
0.11 0.10 0.07 0.04 0.02 0.02 0.02 0.03 0.04 0.05 0.05 0.06 0.05 0.05 0.04 0.04 0.05 0.07 0.10 0.11 0.12 0.13 0.14 0.15 0.16 0.18 0.18 0.20 0.20 0.20 0.20 0.19 0.18 0.16 0.14 0.12 0.10 0.11 0.11 0.10 0.09 0.09 0.08 0.08
0.09 0.09 0.07 0.04 0.02 0.02 0.02 0.03 0.04 0.05 0.06 0.05 0.05 0.05 0.04 0.04 0.05 0.06 0.08 0.12 0.12 0.13 0.14 0.13 0.11 0.12 0.13 0.12 0.11 0.10 0.09 0.10 0.12 0.11 0.10 0.09 0.08 0.08 0.09 0.08 0.08 0.07 0.06 0.05
0.04 0.05 0.04 0.03 0.03 0.03 0.03 0.04 0.06 0.05 0.05 0.04 0.03 0.04 0.03 0.05 0.06 0.05 0.06 0.10 0.12 0.08 0.08 0.08 0.07 0.06 0.06 0.04 0.04 0.03 0.04 0.05 0.07 0.08 0.08 0.07 0.06 0.06 0.07 0.08 0.09 0.08 0.06 0.04
0.02 0.02 0.03 0.03 0.04 0.05 0.05 0.06 0.07 0.06 0.06 0.06 0.05 0.04 0.03 0.04 0.05 0.05 0.04 0.05 0.06 0.05 0.03 0.03 0.04 0.03 0.03 0.03 0.03 0.03 0.04 0.05 0.05 0.06 0.07 0.07 0.07 0.06 0.05 0.05 0.03 0.02 0.02 0.02
0.02 0.02 0.03 0.04 0.05 0.07 0.08 0.08 0.08 0.07 0.08 0.11 0.11 0.09 0.08 0.07 0.06 0.06 0.05 0.05 0.05 0.04 0.02 0.01 0.01 0.01 0.01 0.02 0.02 0.02 0.02 0.03 0.02 0.02 0.02 0.02 0.02 0.02 0.02 0.02 0.01 0.01 0.01 0.02
0.04 0.03 0.05 0.05 0.04 0.05 0.06 0.06 0.06 0.08 0.09 0.10 0.11 0.12 0.11 0.09 0.08 0.07 0.06 0.05 0.04 0.03 0.02 0.01 0.01 0.01 0.01 0.01 0.01 0.01 0.01 0.01 0.01 0.01 0.01 0.01 0.01 0.01 0.01 0.01 0.01 0.02 0.02 0.01
0.07 0.10 0.08 0.06 0.06 0.06 0.05 0.04 0.04 0.04 0.05 0.06 0.07 0.09 0.08 0.07 0.05 0.05 0.04 0.04 0.03 0.02 0.02 0.01 0.01 0.01 0.01 0.00 0.00 0.00 0.00 0.00 0.00 0.00 0.00 0.00 0.00 0.01 0.01 0.01 0.01 0.01 0.00 0.00
0.06 0.09 0.09 0.07 0.07 0.07 0.07 0.05 0.03 0.03 0.03 0.04 0.04 0.05 0.04 0.04 0.02 0.02 0.02 0.01 0.01 0.01 0.01 0.01 0.00 0.00 0.00 0.00 0.00 0.00 0.00 0.00 0.00 0.00 0.00 0.00 0.00 0.00 0.00 0.00 0.00 0.00 0.00 0.00
0.05 0.06 0.07 0.08 0.07 0.07 0.07 0.05 0.04 0.03 0.03 0.04 0.04 0.04 0.03 0.03 0.02 0.02 0.01 0.01 0.01 0.01 0.00 0.00 0.00 0.00 0.00 0.00 0.00 0.00 0.00 0.00 0.00 0.00 0.00 0.00 0.00 0.00 0.00 0.00 0.00 0.00 0.00 0.00
0.06 0.07 0.07 0.07 0.06 0.04 0.05 0.04 0.03 0.03 0.05 0.05 0.04 0.04 0.05 0.03 0.02 0.02 0.02 0.01 0.01 0.01 0.00 0.00 0.00 0.00 0.00 0.00 0.00 0.00 0.00 0.00 0.00 0.00 0.00 0.00 0.00 0.00 0.00 0.00 0.00 0.00 0.00 0.00
0.07 0.07 0.07 0.06 0.05 0.04 0.04 0.04 0.04 0.04 0.05 0.05 0.05 0.05 0.06 0.06 0.04 0.02 0.01 0.01 0.01 0.00 0.00 0.00 0.00 0.00 0.00 0.00 0.00 0.00 0.00 0.00 0.00 0.00 0.00 0.00 0.00 0.00 0.00 0.00 0.01 0.01 0.00 0.00
0.08 0.08 0.06 0.05 0.05 0.05 0.04 0.04 0.04 0.04 0.04 0.03 0.03 0.02 0.02 0.03 0.03 0.02 0.01 0.01 0.00 0.00 0.00 0.00 0.00 0.00 0.00 0.00 0.00 0.00 0.00 0.00 0.00 0.00 0.00 0.00 0.00 0.00 0.00 0.00 0.00 0.00 0.00 0.00
0.07 0.09 0.09 0.06 0.05 0.05 0.04 0.04 0.03 0.02 0.02 0.01 0.01 0.01 0.00 0.01 0.01 0.00 0.00 0.00 0.00 0.00 0.00 0.00 0.00 0.00 0.00 0.00 0.00 0.00 0.00 0.00 0.00 0.00 0.00 0.00 0.00 0.00 0.00 0.00 0.00 0.00 0.00 0.00
0.06 0.07 0.10 0.09 0.07 0.05 0.04 0.04 0.02 0.01 0.01 0.01 0.00 0.00 0.00 0.00 0.00 0.00 0.00 0.00 0.00 0.00 0.00 0.00 0.00 0.00 0.00 0.00 0.00 0.00 0.00 0.00 0.00 0.00 0.00 0.00 0.00 0.00 0.00 0.00 0.00 0.00 0.00 0.00
0.05 0.05 0.06 0.07 0.06 0.06 0.05 0.04 0.02 0.01 0.01 0.00 0.00 0.00 0.00 0.00 0.00 0.00 0.00 0.00 0.00 0.00 0.00 0.00 0.00 0.00 0.00 0.00 0.00 0.00 0.00 0.00 0.00 0.00 0.00 0.00 0.00 0.00 0.00 0.00 0.00 0.00 0.00 0.00
0.06 0.06 0.05 0.04 0.04 0.03 0.03 0.02 0.02 0.01 0.01 0.01 0.01 0.00 0.00 0.00 0.00 0.00 0.00 0.00 0.00 0.00 0.00 0.00 0.00 0.00 0.00 0.00 0.00 0.00 0.00 0.00 0.00 0.00 0.00 0.00 0.00 0.00 0.00 0.00 0.00 0.00 0.00 0.00
0.07 0.06 0.05 0.05 0.04 0.03 0.02 0.02 0.02 0.02 0.01 0.01 0.01 0.00 0.00 0.00 0.00 0.00 0.00 0.00 0.00 0.00 0.00 0.00 0.00 0.00 0.00 0.00 0.00 0.00 0.00 0.00 0.00 0.00 0.00 0.00 0.00 0.00 0.00 0.00 0.00 0.00 0.00 0.00
MSLP
1006.51 1007.16 1007.83 1008.52 1009.21 1009.85 1010.42 1010.86 1011.12 1011.19 1011.05 1010.72 1010.26 1009.71 1009.16 1008.65 1008.22 1007.91 1007.71 1007.60 1007.54 1007.51 1007.47 1007.41 1007.33 1007.24 1007.17 1007.15 1007.20 1007.34 1007.58 1007.91 1008.33 1008.81 1009.33 1009.88 1010.43 1010.99 1011.53 1012.05 1012.56 1013.03 1013.45 1013.83
1006.85 1007.50 1008.10 1008.65 1009.17 1009.62 1010.02 1010.32 1010.53 1010.61 1010.58 1010.42 1010.17 1009.85 1009.49 1009.12 1008.77 1008.45 1008.17 1007.93 1007.73 1007.55 1007.40 1007.26 1007.16 1007.10 1007.09 1007.15 1007.29 1007.51 1007.79 1008.14 1008.54 1008.97 1009.43 1009.90 1010.39 1010.88 1011.37 1011.85 1012.32 1012.77 1013.17 1013.53
1007.32 1007.92 1008.43 1008.85 1009.20 1009.49 1009.73 1009.94 1010.11 1010.23 1010.30 1010.30 1010.23 1010.10 1009.89 1009.63 1009.31 1008.97 1008.60 1008.23 1007.87 1007.56 1007.29 1007.10 1006.98 1006.96 1007.02 1007.17 1007.41 1007.70 1008.03 1008.39 1008.77 1009.16 1009.55 1009.94 1010.34 1010.76 1011.18 1011.62 1012.05 1012.47 1012.86 1013.21
1007.87 1008.38 1008.76 1009.04 1009.24 1009.39 1009.52 1009.65 1009.80 1009.96 1010.12 1010.26 1010.35 1010.36 1010.28 1010.09 1009.80 1009.42 1008.97 1008.48 1008.01 1007.57 1007.22 1006.97 1006.85 1006.86 1006.99 1007.22 1007.53 1007.89 1008.26 1008.63 1008.99 1009.33 1009.65 1009.97 1010.29 1010.64 1011.01 1011.40 1011.80 1012.20 1012.58 1012.91
1008.41 1008.78 1009.03 1009.16 1009.22 1009.25 1009.29 1009.37 1009.51 1009.71 1009.95 1010.20 1010.42 1010.55 1010.57 1010.45 1010.19 1009.79 1009.29 1008.72 1008.16 1007.64 1007.23 1006.95 1006.82 1006.86 1007.03 1007.32 1007.68 1008.07 1008.47 1008.84 1009.17 1009.46 1009.73 1009.99 1010.25 1010.55 1010.87 1011.23 1011.61 1012.00 1012.37 1012.71
1008.84 1009.05 1009.15 1009.14 1009.09 1009.02 1008.99 1009.04 1009.18 1009.42 1009.73 1010.08 1010.40 1010.63 1010.74 1010.69 1010.47 1010.08 1009.57 1008.98 1008.37 1007.82 1007.37 1007.08 1006.95 1006.99 1007.18 1007.48 1007.86 1008.26 1008.66 1009.01 1009.32 1009.58 1009.81 1010.02 1010.25 1010.52 1010.82 1011.16 1011.54 1011.93 1012.30 1012.65
1009.10 1009.16 1009.11 1008.99 1008.83 1008.69 1008.62 1008.65 1008.81 1009.09 1009.45 1009.87 1010.27 1010.60 1010.79 1010.82 1010.66 1010.33 1009.85 1009.28 1008.68 1008.13 1007.69 1007.38 1007.24 1007.27 1007.45 1007.74 1008.10 1008.48 1008.85 1009.17 1009.45 1009.69 1009.90 1010.10 1010.32 1010.58 1010.88 1011.23 1011.61 1012.00 1012.38 1012.74
1009.20 1009.10 1008.93 1008.72 1008.49 1008.32 1008.23 1008.26 1008.44 1008.75 1009.16 1009.63 1010.10 1010.50 1010.78 1010.89 1010.81 1010.56 1010.16 1009.66 1009.12 1008.60 1008.17 1007.87 1007.72 1007.72 1007.86 1008.10 1008.41 1008.74 1009.06 1009.36 1009.61 1009.83 1010.04 1010.25 1010.48 1010.75 1011.07 1011.43 1011.82 1012.23 1012.62 1012.99
1009.15 1008.95 1008.69 1008.42 1008.16 1007.97 1007.89 1007.94 1008.14 1008.48 1008.93 1009.44 1009.96 1010.43 1010.77 1010.97 1011.00 1010.85 1010.55 1010.14 1009.68 1009.23 1008.84 1008.55 1008.38 1008.34 1008.41 1008.58 1008.81 1009.08 1009.34 1009.59 1009.82 1010.04 1010.25 1010.48 1010.74 1011.04 1011.38 1011.77 1012.17 1012.59 1012.99 1013.35
1009.05 1008.77 1008.47 1008.18 1007.93 1007.76 1007.70 1007.78 1008.01 1008.38 1008.85 1009.39 1009.94 1010.45 1010.86 1011.14 1011.26 1011.22 1011.04 1010.74 1010.38 1010.00 1009.65 1009.37 1009.18 1009.09 1009.09 1009.18 1009.32 1009.50 1009.69 1009.90 1010.10 1010.32 1010.54 1010.80 1011.09 1011.43 1011.80 1012.20 1012.62 1013.04 1013.43 1013.79
1008.97 1008.66 1008.35 1008.08 1007.86 1007.73 1007.72 1007.84 1008.10 1008.48 1008.97 1009.52 1010.09 1010.63 1011.09 1011.44 1011.65 1011.71 1011.64 1011.46 1011.19 1010.89 1010.59 1010.32 1010.10 1009.96 1009.88 1009.87 1009.92 1010.01 1010.14 1010.29 1010.48 1010.69 1010.93 1011.22 1011.54 1011.90 1012.29 1012.71 1013.13 1013.54 1013.92 1014.27
1008.96 1008.66 1008.38 1008.14 1007.98 1007.91 1007.95 1008.12 1008.41 1008.82 1009.32 1009.87 1010.45 1011.01 1011.50 1011.90 1012.18 1012.33 1012.36 1012.28 1012.10 1011.87 1011.60 1011.34 1011.10 1010.90 1010.74 1010.65 1010.61 1010.62 1010.68 1010.79 1010.95 1011.16 1011.41 1011.72 1012.06 1012.45 1012.85 1013.27 1013.68 1014.08 1014.44 1014.77
1009.05 1008.77 1008.54 1008.35 1008.25 1008.25 1008.35 1008.57 1008.90 1009.33 1009.84 1010.40 1010.98 1011.55 1012.06 1012.50 1012.84 1013.06 1013.17 1013.16 1013.06 1012.88 1012.65 1012.39 1012.12 1011.87 1011.65 1011.48 1011.36 1011.30 1011.31 1011.38 1011.51 1011.72 1011.98 1012.30 1012.66 1013.05 1013.46 1013.87 1014.27 1014.64 1014.99 1015.29
1009.20 1008.96 1008.77 1008.65 1008.61 1008.67 1008.83 1009.11 1009.48 1009.94 1010.47 1011.04 1011.63 1012.21 1012.74 1013.21 1013.59 1013.86 1014.03 1014.08 1014.02 1013.88 1013.67 1013.41 1013.13 1012.84 1012.57 1012.34 1012.16 1012.05 1012.01 1012.05 1012.18 1012.37 1012.64 1012.97 1013.33 1013.73 1014.13 1014.53 1014.91 1015.27 1015.59 1015.87
1009.39 1009.18 1009.03 1008.95 1008.97 1009.10 1009.33 1009.66 1010.08 1010.58 1011.14 1011.73 1012.34 1012.93 1013.49 1013.98 1014.38 1014.69 1014.89 1014.98 1014.96 1014.84 1014.64 1014.38 1014.09 1013.77 1013.47 1013.20 1012.99 1012.85 1012.79 1012.81 1012.93 1013.13 1013.40 1013.73 1014.10 1014.49 1014.89 1015.27 1015.63 1015.97 1016.27 1016.53
1009.57 1009.39 1009.27 1009.24 1009.31 1009.49 1009.78 1010.17 1010.65 1011.20 1011.80 1012.43 1013.07 1013.69 1014.26 1014.77 1015.19 1015.52 1015.74 1015.84 1015.84 1015.73 1015.54 1015.28 1014.97 1014.65 1014.34 1014.05 1013.83 1013.68 1013.62 1013.65 1013.77 1013.98 1014.26 1014.59 1014.96 1015.35 1015.73 1016.11 1016.45 1016.77 1017.05 1017.30
1009.75 1009.59 1009.50 1009.51 1009.63 1009.86 1010.21 1010.66 1011.20 1011.81 1012.46 1013.13 1013.81 1014.45 1015.04 1015.56 1015.99 1016.32 1016.54 1016.64 1016.64 1016.53 1016.34 1016.08 1015.78 1015.47 1015.16 1014.90 1014.69 1014.56 1014.51 1014.56 1014.70 1014.93 1015.22 1015.56 1015.93 1016.31 1016.69 1017.05 1017.38 1017.68 1017.95 1018.18
1009.95 1009.82 1009.76 1009.80 1009.96 1010.25 1010.65 1011.16 1011.76 1012.43 1013.13 1013.85 1014.56 1015.22 1015.82 1016.34 1016.76 1017.08 1017.29 1017.38 1017.36 1017.25 1017.06 1016.81 1016.53 1016.24 1015.96 1015.73 1015.56 1015.47 1015.46 1015.55 1015.72 1015.96 1016.26 1016.61 1016.98 1017.36 1017.73 1018.08 1018.39 1018.68 1018.93 1019.15
1010.24 1010.14 1010.12 1010.21 1010.41 1010.74 1011.20 1011.76 1012.41 1013.12 1013.87 1014.62 1015.34 1016.01 1016.61 1017.11 1017.51 1017.80 1017.98 1018.04 1018.01 1017.89 1017.70 1017.47 1017.22 1016.97 1016.74 1016.57 1016.46 1016.42 1016.46 1016.59 1016.79 1017.06 1017.38 1017.73 1018.10 1018.46 1018.82 1019.15 1019.45 1019.71 1019.94 1020.13
1010.66 1010.62 1010.65 1010.78 1011.03 1011.40 1011.90 1012.50 1013.18 1013.92 1014.69 1015.44 1016.17 1016.82 1017.39 1017.86 1018.23 1018.47 1018.61 1018.65 1018.59 1018.47 1018.29 1018.09 1017.88 1017.69 1017.53 1017.42 1017.37 1017.40 1017.50 1017.67 1017.91 1018.19 1018.51 1018.86 1019.22 1019.57 1019.90 1020.21 1020.48 1020.72 1020.93 1021.09
1011.26 1011.28 1011.37 1011.55 1011.84 1012.25 1012.77 1013.39 1014.08 1014.83 1015.58 1016.32 1017.01 1017.63 1018.16 1018.58 1018.89 1019.09 1019.18 1019.19 1019.12 1019.00 1018.85 1018.68 1018.53 1018.40 1018.31 1018.28 1018.31 1018.40 1018.55 1018.76 1019.02 1019.31 1019.63 1019.96 1020.29 1020.61 1020.91 1021.19 1021.44 1021.65 1021.83 1021.97
1012.01 1012.11 1012.26 1012.49 1012.82 1013.25 1013.78 1014.39 1015.07 1015.79 1016.51 1017.21 1017.84 1018.40 1018.87 1019.22 1019.48 1019.62 1019.68 1019.66 1019.59 1019.49 1019.37 1019.25 1019.17 1019.11 1019.11 1019.15 1019.25 1019.40 1019.59 1019.82 1020.08 1020.37 1020.67 1020.97 1021.27 1021.55 1021.82 1022.07 1022.29 1022.47 1022.62 1022.74
1012.86 1013.03 1013.24 1013.51 1013.86 1014.30 1014.82 1015.41 1016.06 1016.73 1017.39 1018.02 1018.59 1019.08 1019.47 1019.77 1019.96 1020.07 1020.10 1020.07 1020.01 1019.94 1019.86 1019.81 1019.80 1019.82 1019.89 1020.00 1020.16 1020.35 1020.57 1020.81 1021.07 1021.33 1021.60 1021.86 1022.12 1022.36 1022.60 1022.81 1023.01 1023.17 1023.31 1023.41
1013.72 1013.95 1014.21 1014.51 1014.87 1015.30 1015.80 1016.35 1016.95 1017.55 1018.15 1018.70 1019.20 1019.62 1019.95 1020.18 1020.34 1020.41 1020.44 1020.42 1020.39 1020.35 1020.34 1020.36 1020.41 1020.51 1020.65 1020.82 1021.02 1021.24 1021.47 1021.71 1021.94 1022.17 1022.40 1022.62 1022.83 1023.04 1023.24 1023.43 1023.61 1023.77 1023.90 1023.99
1014.50 1014.77 1015.05 1015.37 1015.73 1016.15 1016.61 1017.13 1017.66 1018.21 1018.73 1019.22 1019.65 1020.01 1020.29 1020.49 1020.61 1020.69 1020.72 1020.72 1020.73 1020.75 1020.80 1020.89 1021.01 1021.17 1021.37 1021.59 1021.82 1022.05 1022.28 1022.50 1022.70 1022.89 1023.08 1023.25 1023.43 1023.60 1023.78 1023.96 1024.13 1024.29 1024.43 1024.54
1015.12 1015.41 1015.71 1016.03 1016.38 1016.78 1017.22 1017.69 1018.18 1018.67 1019.15 1019.58 1019.96 1020.28 1020.53 1020.71 1020.84 1020.92 1020.97 1021.02 1021.08 1021.15 1021.26 1021.41 1021.59 1021.81 1022.04 1022.29 1022.53 1022.76 1022.98 1023.17 1023.34 1023.50 1023.65 1023.78 1023.93 1024.08 1024.25 1024.43 1024.61 1024.78 1024.94 1025.07
1015.54 1015.85 1016.15 1016.47 1016.82 1017.20 1017.62 1018.07 1018.53 1018.99 1019.44 1019.84 1020.20 1020.50 1020.74 1020.93 1021.06 1021.17 1021.26 1021.35 1021.45 1021.58 1021.74 1021.93 1022.16 1022.40 1022.66 1022.92 1023.16 1023.38 1023.58 1023.75 1023.89 1024.02 1024.14 1024.25 1024.38 1024.52 1024.68 1024.87 1025.06 1025.25 1025.43 1025.57
Thickness
5742 5752 5756 5754 5755 5758 5749 5741 5731 5736 5738 5747 5755 5759 5763 5766 5766 5767 5768 5768 5767 5765 5763 5761 5757 5754 5752 5750 5749 5748 5743 5740 5739 5739 5738 5737 5736 5735 5735 5733 5733 5730 5728 5727
5733 5747 5749 5746 5751 5754 5752 5750 5744 5741 5738 5752 5757 5759 5759 5761 5762 5762 5765 5766 5767 5765 5762 5759 5757 5754 5751 5749 5749 5747 5743 5740 5739 5737 5736 5735 5733 5733 5731 5729 5728 5727 5724 5724
5710 5730 5734 5723 5737 5741 5739 5742 5741 5731 5736 5746 5746 5749 5751 5754 5756 5758 5761 5763 5763 5762 5760 5757 5756 5754 5751 5749 5748 5745 5742 5739 5736 5734 5733 5731 5731 5728 5727 5725 5724 5722 5721 5720
5699 5709 5698 5715 5740 5744 5735 5733 5738 5738 5740 5742 5743 5745 5747 5748 5748 5750 5753 5755 5757 5757 5756 5756 5754 5752 5749 5746 5744 5742 5739 5736 5734 5732 5730 5728 5726 5724 5722 5721 5720 5718 5716 5715
5683 5686 5697 5715 5728 5730 5724 5715 5728 5731 5733 5736 5739 5738 5736 5740 5743 5743 5745 5748 5750 5752 5752 5752 5749 5748 5745 5741 5740 5737 5735 5733 5731 5730 5727 5724 5721 5719 5717 5716 5714 5712 5711 5709
5680 5680 5680 5698 5722 5734 5726 5702 5720 5724 5723 5727 5730 5717 5721 5731 5736 5737 5739 5741 5743 5747 5747 5745 5744 5743 5739 5735 5733 5732 5731 5730 5728 5726 5723 5720 5717 5715 5713 5711 5708 5706 5703 5701
5672 5673 5681 5701 5718 5724 5698 5695 5713 5717 5719 5720 5718 5716 5719 5724 5727 5729 5730 5732 5736 5738 5737 5737 5738 5737 5732 5728 5726 5727 5727 5725 5722 5720 5718 5715 5712 5710 5707 5704 5701 5698 5695 5692
5664 5663 5670 5698 5703 5696 5694 5704 5708 5710 5712 5712 5712 5712 5712 5713 5715 5718 5719 5721 5724 5725 5725 5727 5728 5728 5724 5719 5720 5720 5718 5716 5714 5713 5711 5708 5705 5702 5699 5697 5692 5688 5685 5682
5663 5665 5678 5689 5692 5694 5697 5697 5700 5701 5704 5705 5703 5701 5701 5702 5703 5705 5706 5709 5711 5712 5712 5713 5714 5716 5713 5711 5712 5711 5708 5705 5704 5703 5701 5699 5696 5693 5689 5686 5683 5678 5675 5671
5659 5665 5674 5679 5683 5685 5690 5691 5695 5696 5697 5697 5693 5692 5692 5691 5692 5693 5694 5696 5697 5699 5698 5698 5700 5701 5701 5701 5702 5701 5697 5695 5693 5691 5688 5686 5685 5683 5679 5675 5672 5668 5664 5660
5653 5658 5665 5670 5673 5676 5680 5683 5685 5686 5687 5686 5684 5682 5681 5680 5679 5680 5681 5682 5683 5683 5683 5683 5685 5687 5688 5689 5690 5688 5686 5684 5681 5679 5675 5671 5668 5666 5665 5662 5660 5658 5654 5651
5646 5654 5654 5656 5663 5668 5669 5670 5673 5674 5673 5673 5674 5672 5670 5668 5667 5668 5668 5668 5669 5669 5669 5670 5672 5673 5674 5676 5677 5676 5674 5671 5669 5666 5663 5660 5657 5652 5650 5649 5647 5646 5643 5639
5650 5652 5651 5651 5654 5657 5659 5660 5661 5662 5662 5661 5661 5661 5659 5656 5655 5655 5654 5654 5654 5655 5656 5657 5659 5659 5661 5663 5664 5664 5661 5659 5657 5655 5652 5649 5647 5643 5638 5635 5633 5630 5628 5626
5648 5647 5643 5644 5644 5647 5649 5649 5649 5649 5649 5649 5648 5647 5646 5644 5643 5643 5642 5642 5643 5644 5644 5645 5646 5646 5648 5651 5652 5651 5649 5647 5645 5643 5641 5639 5636 5631 5628 5624 5619 5615 5613 5611
5642 5642 5640 5639 5638 5638 5639 5639 5638 5636 5636 5635 5635 5634 5633 5632 5631 5630 5630 5631 5632 5632 5631 5633 5633 5633 5636 5638 5639 5638 5637 5635 5633 5631 5629 5627 5623 5619 5614 5610 5606 5601 5598 5596
5633 5634 5633 5632 5631 5631 5631 5630 5629 5626 5625 5624 5623 5622 5621 5621 5620 5618 5618 5619 5619 5618 5618 5620 5620 5621 5624 5626 5626 5625 5624 5624 5622 5619 5616 5614 5611 5606 5601 5597 5593 5589 5585 5581
5627 5625 5625 5624 5624 5624 5624 5623 5622 5619 5617 5615 5613 5612 5611 5610 5609 5607 5607 5607 5608 5608 5608 5609 5610 5611 5613 5614 5614 5613 5611 5611 5610 5606 5603 5600 5597 5593 5588 5584 5580 5575 5571 5567
5627 5626 5625 5623 5621 5619 5617 5615 5614 5612 5609 5608 5606 5604 5603 5601 5599 5597 5597 5598 5599 5599 5598 5599 5601 5602 5603 5602 5602 5601 5600 5598 5596 5593 5590 5587 5583 5579 5575 5571 5566 5561 5556 5553
5620 5620 5619 5618 5617 5615 5612 5609 5607 5605 5603 5602 5599 5597 5595 5593 5591 5589 5589 5589 5589 5587 5587 5590 5592 5592 5592 5592 5592 5591 5589 5586 5583 5580 5577 5573 5569 5565 5561 5556 5551 5546 5542 5538
5615 5615 5614 5612 5610 5608 5606 5603 5601 5599 5597 5595 5593 5590 5587 5584 5583 5582 5581 5578 5577 5577 5579 5580 5581 5581 5582 5582 5583 5581 5578 5575 5571 5567 5563 5560 5555 5550 5546 5542 5537 5532 5527 5521
5610 5609 5608 5605 5603 5601 5600 5598 5596 5592 5590 5588 5586 5582 5579 5576 5575 5574 5572 5569 5568 5570 5571 5572 5572 5571 5572 5572 5571 5568 5565 5561 5557 5553 5549 5545 5540 5536 5531 5526 5521 5516 5510 5505
5602 5602 5600 5599 5597 5594 5593 5592 5589 5586 5583 5581 5578 5575 5571 5568 5566 5564 5562 5560 5560 5562 5562 5562 5562 5562 5562 5561 5558 5555 5551 5547 5543 5539 5535 5530 5525 5520 5515 5510 5505 5500 5495 5490
5595 5595 5594 5592 5590 5588 5585 5584 5582 5580 5576 5574 5571 5567 5564 5561 5559 5557 5553 5553 5554 5554 5553 5552 5552 5551 5550 5547 5544 5541 5537 5533 5529 5525 5520 5515 5510 5505 5500 5496 5491 5486 5482 5477
5588 5587 5586 5584 5584 5581 5577 5575 5574 5572 5569 5566 5564 5561 5558 5555 5551 5550 5549 5548 5547 5546 5543 5542 5542 5540 5537 5534 5530 5526 5522 5519 5515 5510 5505 5501 5496 5491 5487 5483 5478 5474 5470 5465
5581 5580 5579 5577 5575 5572 5570 5569 5566 5564 5562 5559 5556 5554 5552 5550 5546 5543 5542 5540 5539 5536 5533 5532 5530 5527 5524 5520 5516 5512 5509 5505 5501 5497 5492 5487 5483 5479 5475 5471 5467 5462 5458 5454
5574 5572 5571 5570 5568 5566 5564 5561 5558 5555 5553 5550 5547 5545 5543 5540 5538 5535 5533 5531 5529 5526 5523 5520 5517 5514 5510 5507 5503 5500 5496 5492 5489 5484 5480 5476 5472 5468 5464 5460 5456 5452 5448 5444
5565 5564 5562 5561 5559 5558 5556 5553 5550 5547 5545 5542 5538 5535 5533 5531 5528 5526 5523 5520 5517 5514 5511 5508 5505 5502 5498 5495 5491 5488 5485 5481 5477 5473 5470 5466 5462 5458 5454 5450 5446 5442 5439 5435